This is the latest recevied weather packets stored in our database for station/object WE0DX-1. If no packets are shown the sender has not sent any weather packets the latest 10 day(s).
| Time | Temp. | Humidity | Pressure | Rain* | Wind** | Luminosity | Snow |
|---|---|---|---|---|---|---|---|
| 1777841238 | 27.22° C | 35% | 1008.9 hPa | 0 mm | - | 608 W/m² | - |
| 1777840936 | 27.22° C | 35% | 1009.3 hPa | 0 mm | - | 615 W/m² | - |
| 1777840633 | 27.22° C | 34% | 1009.4 hPa | 0 mm | - | 603 W/m² | - |
| 1777840331 | 27.22° C | 36% | 1009.4 hPa | 0 mm | - | 596 W/m² | - |
| 1777840028 | 26.67° C | 35% | 1009.3 hPa | 0 mm | - | 619 W/m² | - |
| 1777839725 | 26.67° C | 35% | 1009.5 hPa | 0 mm | - | 626 W/m² | - |
| 1777839423 | 26.67° C | 37% | 1009.2 hPa | 0 mm | - | 608 W/m² | - |
| 1777839120 | 26.67° C | 36% | 1009.5 hPa | 0 mm | - | 638 W/m² | - |
| 1777838811 | 26.67° C | 37% | 1009.4 hPa | 0 mm | - | 619 W/m² | - |
| 1777838507 | 26.67° C | 37% | 1009.4 hPa | 0 mm | - | 623 W/m² | - |
| 1777838204 | 26.67° C | 37% | 1009.6 hPa | 0 mm | - | 625 W/m² | - |
| 1777837901 | 26.67° C | 41% | 1009.8 hPa | 0 mm | - | 649 W/m² | - |
| 1777837598 | 26.11° C | 39% | 1010 hPa | 0 mm | - | 630 W/m² | - |
| 1777837294 | 25.56° C | 39% | 1009.9 hPa | 0 mm | - | 652 W/m² | - |
| 1777836992 | 26.11° C | 39% | 1009.8 hPa | 0 mm | - | 640 W/m² | - |
| 1777836686 | 25.56° C | 40% | 1010 hPa | 0 mm | - | 613 W/m² | - |
| 1777836377 | 25.56° C | 40% | 1010.1 hPa | 0 mm | - | 590 W/m² | - |
| 1777836073 | 25.56° C | 39% | 1010 hPa | 0 mm | - | 639 W/m² | - |
| 1777835769 | 25.56° C | 41% | 1010 hPa | 0 mm | - | 659 W/m² | - |
| 1777835466 | 25.56° C | 40% | 1010.2 hPa | 0 mm | - | 674 W/m² | - |
| 1777835164 | 25° C | 41% | 1010.2 hPa | 0 mm | - | 686 W/m² | - |
| 1777834861 | 25.56° C | 40% | 1010.3 hPa | 0 mm | - | 691 W/m² | - |
| 1777834557 | 24.44° C | 40% | 1010.4 hPa | 0 mm | - | 708 W/m² | - |
| 1777834257 | 25° C | 40% | 1010.5 hPa | 0 mm | - | 748 W/m² | - |
| 1777833952 | 25° C | 41% | 1010.6 hPa | 0 mm | - | 749 W/m² | - |
* Rain latest hour (hover to see other rain measurements)
** Current wind speed in m/s (hover to see current wind gust speed)